Home   Weather   New Paris   Past weeks
Flag for USA

Past Weather in New Paris, Indiana, USA — Yesterday and Last 2 Weeks

Now
30 °F

Ice fog.


Feels Like: 19 °F
Forecast: 31 / 26 °F
Wind: 15 mph from Northeast

Location: Goshen Municipal Airport

Current Time: Feb 26, 2020 at 3:13:22 am

Latest Report: Feb 26, 2020 at 1:57 am


Visibility: 5 mi

Pressure: 29.99 "Hg

Humidity: 89%

Dew Point: 27 °F

Location of New ParisLocation

Past Weather in New Paris — Graph

°F

New Paris Temperature Yesterday

Maximum temperature yesterday: 38 °F (at 12:10 am)
Minimum temperature yesterday: 32 °F (at 10:53 pm)
Average temperature yesterday: 35 °F

High & Low Weather Summary for the Past Weeks

 TemperatureHumidityPressure
High53 °F (Feb 23, 3:53 pm)97% (Feb 18, 2:53 am)30.68 "Hg (Feb 18, 2:53 am)
Low1 °F (Feb 14, 7:53 am)32% (Feb 21, 2:53 pm)29.76 "Hg (Feb 13, 1:06 am)
Average29 °F75%30.16 "Hg
* Reported Feb 11 1:53 am — Feb 26 1:57 am, New Paris. Weather by CustomWeather, © 2020

Note: Actual official high and low records may vary slightly from our data, if they occured in-between our weather recording intervals... More about our weather records

New Paris Weather History for the Previous 24 Hours

Scroll right to see more
 ConditionsComfort  
Time TempWeatherWind HumidityBarometerVisibility
1:57 am
Wed, Feb 26
30 °FIce fog.15 mph89%29.99 "Hg5 mi
12:53 am31 °FMostly cloudy.15 mph85%30.02 "Hg9 mi
12:42 am31 °FMostly cloudy.14 mph85%30.00 "Hg7 mi
12:00 am31 °FIce fog.16 mph92%29.99 "Hg4 mi
10:53 pm
Tue, Feb 25
32 °FIce fog.16 mph88%30.02 "Hg4 mi
10:13 pm33 °FFog.17 mph88%29.99 "Hg5 mi
9:53 pm33 °FLight rain. Fog.18 mph88%30.01 "Hg4 mi
8:53 pm33 °FLight snow. Fog.14 mph92%30.00 "Hg3 mi
8:42 pm33 °FLight snow. Fog.13 mph92%29.98 "Hg2 mi
7:53 pm33 °FLight snow. Fog.12 mph92%29.99 "Hg1 mi
6:53 pm33 °FLight snow. Fog.10 mph92%29.97 "Hg1 mi
6:15 pm33 °FLight snow. Fog.8 mph92%29.94 "Hg1 mi
5:53 pm33 °FSnow. Fog.8 mph92%29.95 "Hg1 mi
5:29 pm34 °FLight snow. Fog.8 mph92%29.92 "Hg1 mi
5:22 pm34 °FLight snow. Fog.10 mph92%29.91 "Hg2 mi
4:53 pm35 °FLight rain. Fog.12 mph88%29.91 "Hg6 mi
3:53 pm36 °FLight rain. Overcast.16 mph85%29.90 "Hg7 mi
2:53 pm36 °FLight rain. Mostly cloudy.13 mph85%29.89 "Hg7 mi
1:53 pm36 °FLight rain. Overcast.18 mph89%29.89 "Hg7 mi
12:53 pm37 °FOvercast.12 mph86%29.90 "Hg10 mi
11:53 am36 °FLight rain. Overcast.15 mph85%29.90 "Hg10 mi
11:25 am36 °FOvercast.14 mph85%29.88 "Hg10 mi
10:53 am36 °FMostly cloudy.14 mph85%29.90 "Hg10 mi
10:11 am36 °FCloudy.12 mph85%29.87 "Hg10 mi
9:53 am36 °FCloudy.14 mph82%29.88 "Hg10 mi
8:53 am35 °FLight snow. Fog.14 mph85%29.87 "Hg6 mi
8:30 am34 °FLight snow. Fog.15 mph88%29.84 "Hg5 mi
8:12 am34 °FLight snow. Fog.14 mph88%29.84 "Hg5 mi
7:53 am35 °FOvercast.13 mph88%29.85 "Hg9 mi
7:37 am35 °FOvercast.14 mph88%29.83 "Hg9 mi
6:53 am35 °FFog.13 mph88%29.84 "Hg5 mi
5:53 am35 °FFog.16 mph88%29.82 "Hg5 mi
4:53 am36 °FLight rain. Fog.12 mph89%29.83 "Hg5 mi
3:53 am37 °FFog.10 mph89%29.81 "Hg5 mi
Weather by CustomWeather, © 2020

See weather overview

Advertising